Location: Unspecified
(0.0000°N, 0.0000°E)
Time: 06:47:14
(UTC+00:00)

Explorer 11/Cluster Stage 4 - Visible Passes

Search period start: 26 October 2020 00:00
Search period end: 05 November 2020 00:00
Orbit: 467 x 1258 km, 28.8° (Epoch: 25 October)

Date Brightness Start Highest point End Pass type
(mag) Time Alt. Az. Time Alt. Az. Time Alt. Az.
26 Oct 8.1 18:07:58 10° NNW 18:10:57 15° NNE 18:13:38 10° NE visible
26 Oct 8.4 19:55:12 10° NW 19:56:27 17° NW 19:56:27 17° NW visible
27 Oct 9.6 05:06:48 10° SSE 05:08:13 11° SSE 05:09:42 10° SE visible
27 Oct 7.6 19:44:12 10° WNW 19:47:02 32° WNW 19:47:02 32° WNW visible
28 Oct 9.3 04:55:10 10° S 04:57:26 12° SSE 04:59:50 10° SE visible
28 Oct 6.5 19:33:15 10° WNW 19:37:43 59° W 19:37:43 59° W visible
29 Oct 9.1 04:43:51 10° S 04:46:37 14° SSE 04:49:39 10° ESE visible
29 Oct 6.7 19:22:20 10° WNW 19:27:35 54° SSW 19:28:27 46° S visible
30 Oct 9.0 04:32:40 10° S 04:35:47 16° SSE 04:39:18 10° ESE visible
30 Oct 7.3 19:11:27 10° WNW 19:16:45 43° SSW 19:19:13 23° SSE visible
31 Oct 8.8 04:21:34 10° S 04:24:58 18° SSE 04:28:51 10° ESE visible
31 Oct 7.8 19:00:37 10° W 19:05:55 36° SSW 19:10:01 11° SSE visible
01 Nov 8.6 04:10:34 10° SSW 04:14:08 21° SSE 04:18:17 10° E visible
01 Nov 8.2 18:49:50 10° W 18:55:04 30° SSW 18:59:23 10° SSE visible
02 Nov 8.2 04:00:17 13° SSW 04:03:19 25° SSE 04:07:40 10° E visible
02 Nov 8.6 18:39:05 10° W 18:44:11 26° SSW 18:48:29 10° SSE visible
03 Nov 7.7 03:51:02 24° S 03:52:30 30° SSE 03:56:59 10° E visible
03 Nov 8.9 18:28:24 10° W 18:33:19 23° SSW 18:37:31 10° SSE visible
04 Nov 7.3 03:41:47 36° SE 03:41:47 36° SE 03:46:15 10° E visible
04 Nov 9.0 18:17:48 10° WSW 18:22:26 20° SSW 18:26:29 10° SSE visible
